VA7SHG-1 Weather Reports


time (UTC)temp
C
wind
direction
speed
KPH
gust
KPH
rain 1hr
cm
rain 24hr
cm
rain mn
cm
humidity
%
barometer
mb
20260506175531 14 178 8.0 16.1 0.00 0.00 0.00 75 1019.8
20260506174522 15 204 8.0 24.1 0.00 0.00 0.00 75 1019.7
20260506173531 15 213 3.2 12.9 0.00 0.00 0.00 75 1019.8
20260506172523 14 200 9.7 24.1 0.00 0.00 0.00 77 1019.7
20260506171530 13 231 4.8 16.1 0.00 0.00 0.00 77 1019.9
20260506170524 13 192 8.0 20.9 0.00 0.00 0.00 78 1019.7
20260506165531 13 187 9.7 20.9 0.00 0.00 0.00 78 1019.8
20260506164523 13 247 4.8 16.1 0.00 0.00 0.00 78 1019.9
20260506163648 12 0.0 0.0 0.00 0.00 0.00 85 1016.7
20260506163532 13 241 4.8 20.9 0.00 0.00 0.00 78 1020.0
20260506162523 13 200 6.4 16.1 0.00 0.00 0.00 79 1019.9
20260506161551 13 255 6.4 12.9 0.00 0.00 0.00 78 1019.9
20260506160524 13 270 16.1 37.0 0.00 0.00 0.00 79 1019.8
20260506155532 13 285 6.4 29.0 0.00 0.00 0.00 79 1019.9
20260506154523 13 203 1.6 8.0 0.00 0.00 0.00 80 1019.7
20260506153646 12 0.0 0.0 0.00 0.00 0.00 85 1016.7
20260506153551 13 217 3.2 8.0 0.00 0.00 0.00 80 1019.6
20260506152524 12 260 6.4 20.9 0.00 0.00 0.00 82 1019.6
20260506151532 12 210 1.6 8.0 0.00 0.00 0.00 82 1019.3
20260506150523 12 275 8.0 20.9 0.00 0.00 0.00 82 1019.3
20260506145532 12 273 6.4 16.1 0.00 0.00 0.00 83 1019.3
20260506144524 12 264 8.0 16.1 0.00 0.00 0.00 83 1019.2
20260506143645 12 0.0 0.0 0.00 0.00 0.00 85 1016.7
20260506143551 12 258 4.8 12.9 0.00 0.00 0.00 83 1019.2
20260506142544 12 265 9.7 24.1 0.00 0.00 0.00 83 1019.3
20260506141532 12 262 6.4 16.1 0.00 0.00 0.00 84 1019.1
20260506140523 12 265 9.7 24.1 0.00 0.00 0.00 84 1019.3
20260506135551 12 262 8.0 29.0 0.00 0.00 0.00 84 1019.0
20260506134524 12 270 9.7 24.1 0.00 0.00 0.00 84 1018.9
20260506133647 12 0.0 0.0 0.00 0.00 0.00 85 1016.7
20260506133531 12 266 11.3 24.1 0.00 0.00 0.00 85 1018.8
20260506132522 11 267 4.8 12.9 0.00 0.00 0.00 86 1018.7
20260506131532 11 276 4.8 12.9 0.00 0.00 0.00 86 1018.8
20260506130603 11 264 4.8 16.1 0.00 0.00 0.00 87 1018.7
20260506125531 11 263 0.0 4.8 0.00 0.00 0.00 87 1018.7
20260506124524 11 258 1.6 12.9 0.00 0.00 0.00 87 1018.7
20260506123645 12 0.0 0.0 0.00 0.00 0.00 85 1016.7
20260506123531 11 266 3.2 12.9 0.00 0.00 0.00 87 1018.7
20260506122523 11 267 6.4 16.1 0.00 0.00 0.00 87 1018.5
20260506121532 11 269 6.4 16.1 0.00 0.00 0.00 88 1018.4
20260506120524 11 269 1.6 12.9 0.00 0.00 0.00 87 1018.3
20260506115531 11 268 3.2 8.0 0.00 0.00 0.00 87 1018.2
20260506114523 11 274 4.8 12.9 0.00 0.00 0.00 87 1018.3
20260506113647 12 0.0 0.0 0.00 0.00 0.00 85 1016.7
20260506113544 11 267 4.8 12.9 0.00 0.00 0.00 88 1018.2
20260506112524 11 259 1.6 4.8 0.00 0.00 0.00 87 1018.1
20260506111531 11 255 1.6 8.0 0.00 0.00 0.00 87 1018.0
20260506110524 11 260 3.2 8.0 0.00 0.00 0.00 87 1017.9
20260506105532 11 256 1.6 12.9 0.00 0.00 0.00 88 1017.7
20260506104523 11 211 0.0 4.8 0.00 0.00 0.00 88 1017.5
20260506103645 12 0.0 0.0 0.00 0.00 0.00 85 1016.7
20260506103632 12 259 0.0 4.8 0.00 0.00 0.00 87 1017.3
20260506102540 11 270 3.2 4.8 0.00 0.00 0.00 88 1017.2
20260506101531 11 264 0.0 4.8 0.00 0.00 0.00 88 1017.2
20260506100523 12 0.0 0.0 0.00 0.00 0.00 87 1017.1
20260506095532 12 264 0.0 4.8 0.00 0.00 0.00 86 1017.1
20260506094543 12 303 0.0 4.8 0.00 0.00 0.00 86 1017.1
20260506093644 12 0.0 0.0 0.00 0.00 0.00 85 1016.7
20260506093531 11 296 1.6 4.8 0.00 0.00 0.00 88 1017.0
20260506092540 11 0.0 0.0 0.00 0.00 0.00 88 1017.0
20260506091552 12 0.0 0.0 0.00 0.00 0.00 86 1016.9
20260506090524 12 0.0 0.0 0.00 0.00 0.00 86 1016.8
20260506085533 12 0.0 0.0 0.00 0.00 0.00 85 1016.8
20260506084524 12 266 0.0 8.0 0.00 0.00 0.00 84 1016.7
20260506083646 12 239 0.0 4.8 0.00 0.00 0.00 85 1016.6
20260506083532 12 239 0.0 4.8 0.00 0.00 0.00 85 1016.7
20260506082523 12 0.0 0.0 0.00 0.00 0.00 84 1016.6
20260506081533 12 0.0 0.0 0.00 0.00 0.00 82 1016.6
20260506080524 13 165 0.0 4.8 0.00 0.00 0.00 82 1016.6
20260506072524 13 0.0 0.0 0.00 0.00 0.00 78 1016.4
20260506071531 13 260 1.6 8.0 0.00 0.00 0.00 78 1016.3
20260506070605 14 0.0 0.0 0.00 0.00 0.00 78 1016.3
20260506061516 15 206 1.6 12.9 0.00 0.00 0.00 75 1015.8
20260506060524 15 189 3.2 12.9 0.00 0.00 0.00 74 1015.6
20260506050524 16 176 3.2 16.1 0.00 0.00 0.00 70 1015.3
20260506044523 16 223 1.6 8.0 0.00 0.00 0.00 69 1015.2
20260506043646 15 0.0 0.0 0.00 0.00 0.00 74 1011.6
20260506043517 16 253 1.6 12.9 0.00 0.00 0.00 68 1015.1
20260506042524 16 205 3.2 12.9 0.00 0.00 0.00 68 1015.0
20260506041535 16 195 4.8 16.1 0.00 0.00 0.00 67 1014.9
20260506040524 16 196 4.8 16.1 0.00 0.00 0.00 66 1014.8
20260506035516 17 255 6.4 20.9 0.00 0.00 0.00 65 1014.6
20260506034524 17 263 12.9 24.1 0.00 0.00 0.00 66 1014.5
20260506033646 15 0.0 0.0 0.00 0.00 0.00 74 1011.6
20260506033537 17 266 8.0 29.0 0.00 0.00 0.00 67 1014.4
20260506032544 17 254 8.0 20.9 0.00 0.00 0.00 65 1014.2
20260506031515 17 255 6.4 32.2 0.00 0.00 0.00 65 1014.1
20260506030525 18 233 8.0 24.1 0.00 0.00 0.00 65 1014.1
20260506025516 18 249 8.0 32.2 0.00 0.00 0.00 63 1014.0
20260506024524 19 243 8.0 40.2 0.00 0.00 0.00 62 1013.9
20260506023644 15 0.0 0.0 0.00 0.00 0.00 74 1011.6
20260506023515 19 250 11.3 29.0 0.00 0.00 0.00 61 1013.9
20260506022525 20 248 17.7 37.0 0.00 0.00 0.00 60 1013.8
20260506021516 20 231 11.3 24.1 0.00 0.00 0.00 60 1013.7
20260506020524 20 189 8.0 24.1 0.00 0.00 0.00 60 1013.8
20260506015517 20 226 12.9 45.1 0.00 0.00 0.00 58 1013.7
20260506014524 21 246 6.4 24.1 0.00 0.00 0.00 57 1013.6
20260506013647 15 0.0 0.0 0.00 0.00 0.00 74 1011.6
20260506013536 21 229 11.3 24.1 0.00 0.00 0.00 55 1013.6
20260506012541 21 242 9.7 20.9 0.00 0.00 0.00 54 1013.5
20260506011517 21 241 9.7 32.2 0.00 0.00 0.00 53 1013.5
20260506010524 21 245 9.7 29.0 0.00 0.00 0.00 52 1013.5
20260506005535 21 260 11.3 37.0 0.00 0.00 0.00 53 1013.5
20260506004525 21 262 14.5 37.0 0.00 0.00 0.00 51 1013.5
20260506003652 15 0.0 0.0 0.00 0.00 0.00 74 1011.6
20260506003536 22 264 9.7 24.1 0.00 0.00 0.00 50 1013.5
20260506002523 22 236 14.5 32.2 0.00 0.00 0.00 51 1013.6
20260506001537 22 216 16.1 37.0 0.00 0.00 0.00 50 1013.6
20260506000524 22 230 11.3 24.1 0.00 0.00 0.00 49 1013.7
20260505235535 22 249 9.7 20.9 0.00 0.00 0.00 49 1013.8
20260505234525 22 227 12.9 32.2 0.00 0.00 0.00 49 1013.8
20260505233645 15 0.0 0.0 0.00 0.00 0.00 74 1011.6
20260505233516 22 227 12.9 37.0 0.00 0.00 0.00 49 1013.9
20260505232544 22 213 19.3 45.1 0.00 0.00 0.00 50 1013.9
20260505231515 22 227 16.1 53.1 0.00 0.00 0.00 50 1014.0
20260505230545 22 218 11.3 32.2 0.00 0.00 0.00 51 1014.1
20260505225556 22 247 12.9 37.0 0.00 0.00 0.00 51 1014.3
20260505224539 22 229 16.1 40.2 0.00 0.00 0.00 52 1014.3
20260505223647 15 0.0 0.0 0.00 0.00 0.00 74 1011.6
20260505223517 22 222 11.3 29.0 0.00 0.00 0.00 52 1014.3
20260505222524 22 219 14.5 40.2 0.00 0.00 0.00 52 1014.3
20260505221516 22 224 12.9 29.0 0.00 0.00 0.00 52 1014.4
20260505220525 22 238 19.3 56.3 0.00 0.00 0.00 52 1014.4
20260505215533 22 261 17.7 45.1 0.00 0.00 0.00 52 1014.4
20260505214524 22 236 17.7 40.2 0.00 0.00 0.00 52 1014.5
20260505214436 15 0.0 0.0 0.00 0.00 0.00 74 1011.6
20260505213516 22 260 12.9 37.0 0.00 0.00 0.00 54 1014.6
20260505212545 22 259 17.7 48.3 0.00 0.00 0.00 54 1014.6
20260505211536 22 262 12.9 40.2 0.00 0.00 0.00 53 1014.6
20260505210523 22 252 11.3 48.3 0.00 0.00 0.00 54 1014.6
20260505205517 21 278 20.9 40.2 0.00 0.00 0.00 55 1014.7
20260505204525 22 261 17.7 37.0 0.00 0.00 0.00 54 1014.8
20260505204433 15 0.0 0.0 0.00 0.00 0.00 74 1011.6
20260505203516 21 264 20.9 48.3 0.00 0.00 0.00 56 1014.8
20260505202543 21 268 14.5 48.3 0.00 0.00 0.00 57 1014.8
20260505201517 21 264 20.9 37.0 0.00 0.00 0.00 57 1014.8
20260505200544 21 299 24.1 56.3 0.00 0.00 0.00 57 1014.9
20260505195515 21 284 19.3 40.2 0.00 0.00 0.00 56 1014.9
20260505194525 21 272 17.7 40.2 0.00 0.00 0.00 57 1014.9
20260505194434 15 0.0 0.0 0.00 0.00 0.00 74 1011.6
20260505193516 20 274 19.3 37.0 0.00 0.00 0.00 58 1015.0
20260505192524 21 279 16.1 37.0 0.00 0.00 0.00 57 1015.0
20260505191537 20 268 19.3 37.0 0.00 0.00 0.00 58 1015.0
20260505190524 20 273 16.1 32.2 0.00 0.00 0.00 57 1015.1
20260505185536 20 273 11.3 24.1 0.00 0.00 0.00 59 1015.1
20260505184541 20 260 16.1 32.2 0.00 0.00 0.00 57 1015.1
20260505183537 20 282 12.9 32.2 0.00 0.00 0.00 57 1015.2
20260505182525 20 309 11.3 29.0 0.00 0.00 0.00 57 1015.2
20260505181516 19 271 12.9 32.2 0.00 0.00 0.00 59 1015.3
20260505181029 19 246 6.4 12.9 0.00 0.00 0.00 60 1015.3